Content
SEND FEEDBACK

Daily
Averages
Monthly
Summary
Mexico

PUEBLA - JARDINES DE SAN MANUEL, PUEBLA


Home > North America > Mexico > Puebla
Elevation: 6962 feet     Latitude: 19 00N     Longitude: 098 11W

WEATHER
 
SELECT A DAY
Number of Records: 121,213;   Date Range: 1/1/95 - 9/21/14
 
SHARE

PRINT THIS DATA

[ ← Previous Day ]
WEATHER ALMANAC - APRIL 2, 2013
[ Next Day → ]
[ °C ]   °F
Weather ElementAverageHighLow
Temperature67.2 °F82 °F (2:50 pm)48.2 °F (5:40 am)
Dewpoint40.6 °F47 °F (8:50 am)33.8 °F (3:47 pm)
Humidity38 %71 % (5:40 am)16 % (2:50 pm)
Barometer30.12 in30.34 in (8:43 am)29.56 in (8:58 pm)
Wind Speed9.4 mph28.8 mph (4:43 pm)
Wind Gust34.5 mph (3:47 pm)
Weather ElementAverage
Visibility7 mi
Wind DirectionSSW (191.7 °)

Weather ElementTotal
Precipitation---
Cooling Degree Days0.1 (Base 65)
Growing Degree Days15.1 (Base 50)
Averaged from 26 records on April 2, 2013
WEATHER CONDITIONS BREAKOUT
WIND DIRECTION BREAKOUT
WEATHER BY HOUR - APRIL 2, 2013
[ °C ]   °F
Local TimeTemperatureDewpointHumidityBarometerVisibilityWind DirectionWind SpeedGust SpeedPrecipitationEventsConditions
4:53 AM51.8 °F41.0 °F67 %30.29 in8.0 miCalmMostly Cloudy
5:40 AM48.2 °F39.2 °F71 %30.29 in8.0 miNorth (360°)3.5 mphMostly Cloudy
5:58 AM56.0 °F43.0 °F50 %29.79 in3.0 miCalmPartly Cloudy
6:40 AM50.0 °F41.0 °F71 %30.31 in8.0 miNW (320°)8.1 mphOvercast
7:44 AM55.4 °F44.6 °F67 %30.33 in6.0 miNorth (350°)6.9 mphOvercast
8:43 AM62.6 °F41.0 °F45 %30.34 in6.0 miCalmOvercast
8:50 AM66.0 °F47.0 °F39 %29.88 in3.0 miCalmHaze
9:43 AM69.8 °F42.8 °F38 %30.33 in6.0 miSSE (150°)10.4 mphOvercast
10:43 AM71.6 °F44.6 °F38 %30.32 in6.0 miSSE (160°)12.7 mphOvercast
11:42 AM75.2 °F42.8 °F31 %30.31 in6.0 miSouth (170°)11.5 mphOvercast
11:50 AM76.0 °F47.0 °F25 %29.83 in12.0 miSSE (150°)4.5 mphClear
12:46 PM77.0 °F39.2 °F26 %30.28 in8.0 miSouth (180°)16.1 mphOvercast
1:44 PM77.0 °F39.2 °F26 %30.25 in8.0 miSouth (190°)16.1 mphOvercast
2:45 PM78.8 °F37.4 °F23 %30.20 in8.0 miSouth (180°)23.0 mphMostly Cloudy
2:50 PM82.0 °F44.0 °F16 %29.65 in12.0 miSouth (180°)11.2 mphHaze
3:47 PM78.8 °F33.8 °F20 %30.17 in6.0 miSSW (200°)23.0 mph34.5 mphWidespread Dust
4:43 PM73.4 °F35.6 °F25 %30.20 in6.0 miWNW (300°)28.8 mphWidespread Dust
5:44 PM69.8 °F35.6 °F28 %30.21 in6.0 miWNW (290°)4.6 mphMostly Cloudy
5:50 PM77.0 °F41.0 °F18 %29.58 in9.0 miSSW (210°)8.9 mphHaze
6:46 PM66.2 °F35.6 °F32 %30.22 in8.0 miSSW (200°)5.8 mphMostly Cloudy
7:43 PM60.8 °F37.4 °F42 %30.23 in8.0 miSSE (160°)8.1 mphMostly Cloudy
8:45 PM64.4 °F39.2 °F40 %30.25 in8.0 miSouth (190°)13.8 mphMostly Cloudy
8:58 PM71.0 °F38.0 °F20 %29.56 in3.0 miSSE (150°)2.2 mphScattered Clouds
9:44 PM62.6 °F41.0 °F45 %30.26 in8.0 miSouth (190°)15.0 mphMostly Cloudy
10:41 PM59.0 °F42.8 °F55 %30.27 in8.0 miSouth (170°)9.2 mphMostly Cloudy
11:58 PM67.0 °F42.0 °F29 %29.66 in3.0 miSSE (150°)2.2 mph
Hourly data recorded from MMPB, located miles away from Puebla - Jardines de San Manuel, Puebla







STORIES FROM OUR PARTNERS